Skip Page Navigation
NASA JPL Caltech
NASA Logo - Jet Propulsion Laboratory + View the NASA Portal
+ Center for Near-Earth Object Studies
JPL Home Earth Solar System Stars & Galaxies Technology
JPL Solar System Dynamics
BODIES ORBITS EPHEMERIDES TOOLS PHYSICAL DATA DISCOVERY FAQ SITE MAP
IMPORTANT: The SSD Announcement email list is now available. Major changes are coming in the near future, including possible hostname and/or URL changes. To be notified of such changes, subscribe to this email list.

Please visit this page for more details.


JPL Small-Body Database Browser
Search: [ help ]  
26895 (1995 MC)
Classification: Main-belt Asteroid          SPK-ID: 2026895
Ephemeris | Orbit Diagram | Orbital Elements | Mission Design | Physical Parameters | Discovery Circumstances | Close-Approach Data ]

[ show orbit diagram ]
Orbital Elements at Epoch 2458600.5 (2019-Apr-27.0) TDB
Reference: JPL 26 (heliocentric ecliptic J2000)
 Element Value Uncertainty (1-sigma)   Units 
e .2765274814591833 5.5276e-08  
a 3.112899418642074 2.1542e-08 au
q 2.252097182369225 1.6465e-07 au
i 19.94514557376169 5.0256e-06 deg
node 302.4254701162359 1.3379e-05 deg
peri 16.4683209983301 1.5394e-05 deg
M 82.58738430776744 1.0383e-05 deg
tp 2458140.288708510201
(2018-Jan-21.78870851)
5.5309e-05 TDB
period 2006.069889790002
5.49
2.0824e-05
5.701e-08
d
yr
n .1794553628625996 1.8628e-09 deg/d
Q 3.973701654914923 2.75e-08 au
  Orbit Determination Parameters
   # obs. used (total)      1409  
   data-arc span      13414 days (36.73 yr)  
   first obs. used      1983-03-08  
   last obs. used      2019-11-28  
   planetary ephem.      DE431  
   SB-pert. ephem.      SB431-N16  
   condition code      0  
   norm. resid. RMS      .474  
   source      ORB  
   producer      Otto Matic  
   solution date      2019-Dec-04 00:58:27  

Additional Information
 Earth MOID = 1.24339 au 
 Jupiter MOID = 1.36338 au 
 T_jup = 3.069 
[ show covariance matrix ]

Ephemeris | Orbit Diagram | Orbital Elements | Mission Design | Physical Parameters | Discovery Circumstances | Close-Approach Data ]

Physical Parameter Table
Parameter Symbol Value Units Sigma Reference Notes
absolute magnitude H 12.5   n/a MPO381474  
diameter diameter 9.715 km 0.440 urn:nasa:pds:neowise_diameters_albedos::2.0[mainbelt] (http://adsabs.harvard.edu/abs/2011ApJ...741...68M)  
rotation period rot_per 12.72 h n/a LCDB (Rev. 2019-January); Warner et al., 2009 Result based on less than full coverage, so that the period may be wrong by 30 percent or so.
Published Reference List:
[Stephens, R.D. (2012) Posting on CALL web site. http://www.minorplanet.info/call.html]
geometric albedo albedo 0.205   0.038 urn:nasa:pds:neowise_diameters_albedos::2.0[mainbelt] (http://adsabs.harvard.edu/abs/2011ApJ...741...68M)  

26895 (1995 MC)          Discovered 1995-Jun-23 by Garradd, G. J. at Siding Spring
Reference: 20010804/Numbers.arcLast Updated: 2004-04-19

[ hide close-approach data ]
Close-Approach Data   ...sorted by Date/Time (TDB)
Date/Time (TDB) Time Uncertainty
(days_HH:MM)
Body Nominal Distance (au) Minimum Distance (au) Maximum Distance (au) V-relative (km/s) V-infinity (km/s) JD (TDB) Time Uncertainty (minutes) Semi-major axis (km) Semi-minor axis (km) range-LOV angle (deg) N-sigma BP Orbit Ref. Reference Modified
1944-Jun-18 11:11 00:02 Jupiter 1.88244271435657 1.88243987567459 1.88244555303931 4.79032156956106 4.69545122812172 2431259.965776723 1.84528749818222 155.987770432825 56.0928644343617 25.5095810707724 2685648.94431428 T 26 CATAB v2.0f-lin.ifort 2019-Dec-04 00:58:43 2019-Dec-04 00:58
1954-Nov-29 12:01 00:01 Jupiter 1.45155305425744 1.4515518413771 1.45155426714009 4.78989227372255 4.66647737349925 2435076.000842795 1.19753538578388 140.462395129815 40.5519116241 -70.6660623553142 2875600.12917615 T 26 CATAB v2.0f-lin.ifort 2019-Dec-04 00:58:43 2019-Dec-04 00:58
2015-Feb-15 15:53 < 00:01 Jupiter 1.50759093322506 1.5075902655718 1.50759160087841 4.82923992810612 4.71146276996445 2457069.161508731 0.276630393191288 53.1041276301264 31.7466201024811 -77.076918607927 3361531.1673963 T 26 CATAB v2.0f-lin.ifort 2019-Dec-04 00:58:43 2019-Dec-04 00:58
2025-Jul-19 00:30 < 00:01 Jupiter 1.8120671036595 1.81206618110889 1.81206802621939 4.69913888261423 4.59859080805637 2460875.520865798 0.58479661562011 522.379159863755 41.4985198834549 -87.7895453337455 3211244.50487449 T 26 CATAB v2.0f-lin.ifort 2019-Dec-04 00:58:43 2019-Dec-04 00:58
2085-Nov-20 20:21 00:01 Jupiter 1.35128967509017 1.35128919538545 1.35129015479489 4.7680642851916 4.63473693829201 2482915.347928090 1.37607929780025 152.030865920517 23.627485682304 -89.2394399807757 3624158.94332752 T 26 CATAB v2.0f-lin.ifort 2019-Dec-04 00:58:43 2019-Dec-04 00:58
2146-Apr-05 18:33 00:04 Jupiter 1.98921713461372 1.98921180143826 1.98922246779483 4.73908045694897 4.6483620386557 2504965.272583218 3.70604196806639 316.783133823605 53.1726043998683 32.4285958390163 2788703.64354018 T 26 CATAB v2.0f-lin.ifort 2019-Dec-04 00:58:43 2019-Dec-04 00:58
2156-Sep-05 07:06 00:03 Jupiter 1.41666446372894 1.41666181489892 1.41666711259261 4.73542955200018 4.60743905977772 2508770.795889836 3.24412526250415 377.822687484282 20.3324173973431 -69.8063777031561 3371340.30626947 T 26 CATAB v2.0f-lin.ifort 2019-Dec-04 00:58:43 2019-Dec-04 00:58

Alternate Designations
 1995 MC = 1990 QP19 
Ephemeris | Orbit Diagram | Orbital Elements | Mission Design | Physical Parameters | Discovery Circumstances | Close-Approach Data ]
ABOUT SSD CREDITS/AWARDS PRIVACY/COPYRIGHT GLOSSARY LINKS
FirstGov 2019-Dec-09 11:12 UT
(server date/time)  
NASA Home Page
Site Manager:   Ryan S. Park
Webmaster  Alan B. Chamberlin